Regional Weather Roundup
Issued by NWS

Home | Current Version | Previous Version | Graphics & Text | Print | Product List | Glossary On
Versions: 1 2 3 4 5 6 7 8 9 10 11 12 13 14 15 16 17 18 19 20 21 22 23 24 25 26 27 28 29 30 31 32 33 34 35 36 37 38 39 40 41 42 43 44 45 46 47 48 49 50
000
ASUS44 KMEG 270210
RWRTN
TENNESSEE HOURLY STATE WEATHER ROUNDUP
NATIONAL WEATHER SERVICE MEMPHIS TN
900 PM CDT MON JUN 26 2017

TNZ002-004-019-021-049-052-054-088>092-270300-
WEST TENNESSEE

CITY           SKY/WX    TMP DP  RH WIND       PRES   REMARKS
MEMPHIS INTL   PTCLDY    78  59  51 N3        30.08R
NWS MEMPHIS      N/A     75 N/A N/A MISG        N/A
JACKSON        PTCLDY    70  61  73 CALM      30.09S
SOMERVILLE     PTCLDY    70  63  78 CALM      30.08S
COVINGTON      PTCLDY    73  66  78 CALM      30.09R
UNION CITY     MOCLDY    72  55  56 CALM      30.08F
BOLIVAR        PTCLDY    70  63  78 CALM      30.09R
HUNTINGDON     PTCLDY    70  59  68 NE5       30.09S
LEXINGTON      CLEAR     66  61  82 CALM      30.09S
SELMER         CLEAR     68  64  88 CALM      30.09R
SAVANNAH       CLEAR     70  64  83 CALM      30.08R
$$

TNZ008-025-027-028-033-062-065-066-270300-
NORTH MIDDLE TENNESSEE

CITY           SKY/WX    TMP DP  RH WIND       PRES   REMARKS
NASHVILLE      MOCLDY    72  51  47 N7        30.10S
PORTLAND       CLEAR     68  57  68 CALM      30.10S
CLARKSVILLE    CLOUDY    69  54  58 CALM      30.10S
SMYRNA         CLEAR     69  56  62 N6        30.11R
COOKEVILLE     CLEAR     61  57  88 CALM      30.10R
GALLATIN       CLEAR     72  52  49 CALM      30.12S
CROSSVILLE     CLEAR     62  54  74 CALM      30.14R
$$

TNZ061-075-076-078-094-096-097-270300-
SOUTH MIDDLE TENNESSEE

CITY           SKY/WX    TMP DP  RH WIND       PRES   REMARKS
FAYETTEVILLE   CLEAR     70  59  68 CALM      30.10R
TULLAHOMA        N/A     66  59  77 CALM      30.12R
WINCHESTER     CLEAR     66  63  88 CALM      30.11R
MCMINNVILLE    CLEAR     66  59  77 CALM      30.11S
COLUMBIA       CLEAR     70  59  68 CALM      30.08R
SHELBYVILLE    CLEAR     66  61  82 CALM      30.10R
$$

TNZ017-018-042-046-047-270300-
NORTHEAST TENNESSEE

CITY           SKY/WX    TMP DP  RH WIND       PRES   REMARKS
TRI CITIES     PTCLDY    67  57  70 S6        30.09S
ELIZABETHTON   PTCLDY    61  57  88 CALM      30.11R
$$

TNZ012-013-036-069-073-074-270300-
CENTRAL EAST TENNESSEE

CITY           SKY/WX    TMP DP  RH WIND       PRES   REMARKS
KNOXVILLE      PTCLDY    71  57  61 W3        30.08R
OAK RIDGE      CLEAR     66  56  70 CALM      30.10R
DOWNTOWN KNOXV   N/A     64  59  82 CALM      30.08R
GATLINBURG     CLEAR     66  55  68 CALM      30.09R
MORRISTOWN     MOCLDY    70  54  56 CALM      30.10R
JACKSBORO      CLEAR     63  57  82 CALM      30.13S
$$

TNZ083-085-099-270300-
SOUTHEAST TENNESSEE

CITY           SKY/WX    TMP DP  RH WIND       PRES   REMARKS
CHATTANOOGA    PTCLDY    76  58  53 CALM      30.08S
$$

SKY/WX REPORTED AS FAIR MEANS FEW OR NO CLOUDS BELOW
12 THOUSAND FEET.





USA.gov is the U.S. government's official web portal to all federal, state and local government web resources and services.